Regional Weather Roundup
Issued by NWS Wakefield, VA

Home | Current Version | Previous Version | Text Only | Print | Product List | Glossary Off
Versions: 1 2 3 4 5 6 7 8 9 10 11 12 13 14 15 16 17 18 19 20 21 22 23 24 25 26 27 28 29 30 31 32 33 34 35 36 37 38 39 40 41 42 43 44 45 46 47 48 49 50

000
ASUS41 KAKQ 171615
RWRAKQ

REGIONAL WEATHER ROUNDUP
NATIONAL WEATHER SERVICE WAKEFIELD VA
1100 AM EST TUE JAN 17 2017

Note: "fair" indicates few or no clouds below 12,000 feet with no
significant weather and/or obstructions to visibility. * = Denotes
station may not report precipitation (e.g., rain,snow,etc.),
thunder or fog.

VAZ042-051-052>054-056-171700-
NORTHERN VIRGINIA

CITY           SKY/WX    TMP DP  RH WIND       PRES   REMARKS
WASH NATIONAL  LGT RAIN  44  43  96 S7        30.15F FOG
DULLES         CLOUDY    43  41  93 S8        30.12F FOG
FORT BELVOIR   CLOUDY    45  43  93 SE7       30.13F
QUANTICO       LGT RAIN  44  44 100 CALM      30.16F FOG
FREDERICKSBRG* LGT RAIN  46  46 100 SE3       30.14F
STAFFORD*      LGT RAIN  44  44 100 CALM      30.18F
WARRENTON      CLOUDY    45  41  86 S5        30.13F
CULPEPER*      CLOUDY    44  43  95 SW5       30.15F
MANASSAS*      PTSUNNY  N/A N/A N/A S10         N/A
LEESBURG*      CLOUDY    45  45 100 MISG      30.13F FOG
WINCHESTER     CLOUDY    39  37  93 CALM      30.09F FOG
FRONT ROYAL*   CLOUDY    45  45 100 CALM      30.09S
LURAY*         FAIR      52  52 100 CALM      30.08F
$$

VAZ048-049-060>072-079>083-171700-
CENTRAL AND SOUTH CENTRAL VIRGINIA

CITY           SKY/WX    TMP DP  RH WIND       PRES   REMARKS
RICHMOND       CLOUDY    49  48  97 S8        30.18F
CHESTERFIELD*  CLOUDY    50  34  53 S5        30.19F
PETERSBURG*    PTSUNNY   52  46  82 S7        30.19F
HANOVER        CLOUDY    49  46  90 S9        30.18F FOG
TAPPAHANNOCK*  LGT RAIN  48  48 100 S5        30.18F
QUINTON*       CLOUDY    48  48 100 S7        30.19F FOG
CHARLOTTSVILLE CLOUDY    45  43  93 SW5       30.13F FOG
GORDONSVILLE*  CLOUDY    45  44  98 SW5       30.13F
ORANGE*          N/A     45  45 100 CALM      30.14F
LOUISA*        CLOUDY    48  46  93 S5        30.12F
BUMPASS*       CLOUDY    46  46 100 S3        30.15F
FARMVILLE*     CLOUDY    54  49  86 S13G20    30.14F
CREWE*         FAIR      55  53  95 SW6       30.17F
FORT PICKETT*  FAIR      54  48  82 S8        30.18F
CHASE CITY*    PTSUNNY   52  51  95 CALM      30.19F
CLARKSVILLE*   PTSUNNY   55  52  88 SW9       30.21S
SOUTH HILL*    CLOUDY    53  50  91 S12       30.26F
LAWRENCEVILLE* CLOUDY    53  49  89 SW9       30.20F
EMPORIA*       CLOUDY    50  46  87 SE6       30.23F
$$

VAZ088>098-171700-
SOUTHEAST VIRGINIA

CITY           SKY/WX    TMP DP  RH WIND       PRES   REMARKS
NORFOLK        CLOUDY    51  46  83 S9        30.22F
VIRGINIA BEACH CLOUDY    50  45  83 S7        30.22F
NORFOLK NAVAL  CLOUDY    52  46  80 S8        30.23F
WEST POINT*    CLOUDY    50  47  89 S5        30.21F
SALUDA*        CLOUDY    50  47  90 SW8       30.19F
NEWPORT NEWS   CLOUDY    50  46  86 S9        30.21F
LANGLEY AFB    CLOUDY    50  46  87 S8        30.21F
FORT EUSTIS    CLOUDY    50  45  83 S5        30.19F
WILLIAMSBURG*  PTSUNNY   52  46  82 S7        30.21F
HR EXEC AP*    CLOUDY    52  45  76 SW6       30.22F
FRANKLIN*      CLOUDY    50  46  84 S6        30.24F
US460-WAKEFLD  CLOUDY    51  48  89 SW8       30.22F
$$

VAZ020-022-025-037-045-171700-
WEST CENTRAL AND SOUTHWEST VIRGINIA

CITY           SKY/WX    TMP DP  RH WIND       PRES   REMARKS
STAUNTON*      CLOUDY    49  48  95 W3        30.12F
WAYNESBORO*    CLOUDY    52  49  91 W5        30.11S
HOT SPRINGS VA LGT RAIN  52  52 100 SW20      30.10F
LYNCHBURG      LGT RAIN  45  44  97 SW8       30.17F FOG
DANVILLE       CLOUDY    53  50  89 SW7       30.21F
SOUTH BOSTON*  CLOUDY    55  50  85 S3        30.20F
MARTINSVILLE   RAIN      49  48  95 CALM      30.23S
ROANOKE        LGT RAIN  45  44  97 S3        30.17F FOG
BLACKSBURG     LGT RAIN  48  48 100 CALM      30.18F
DUBLIN*        CLOUDY    48  48 100 CALM      30.16F FOG
MARION*        CLOUDY    50  49  96 NE5       30.16F
HILLSVILLE*    CLOUDY    49  49 100 S5        30.15F
RICHLANDS*     CLOUDY   N/A N/A N/A SW12G17   30.12S
WISE*          LGT RAIN  55  55 100 SW20G26   30.12F
ABINGDON*      LGT RAIN  55  53  95 CALM      30.14S
$$

MDZ021>025-VAZ099-100-171700-
SOUTHERN MARYLAND AND THE DELMARVA PENINSULA

CITY           SKY/WX    TMP DP  RH WIND       PRES   REMARKS
PATUXENT RIVER LGT RAIN  45  42  89 S3        30.19F FOG
BAY BRIDGE APT LGT RAIN  41  41 100 S7        30.17F FOG
LEONARDTOWN    CLOUDY    45  41  87 SE3       30.18F
DOVER          LGT RAIN  42  42 100 S3        30.20F
GEORGETOWN     CLOUDY    45  42  89 SW5       30.21F FOG
EASTON         LGT RAIN  45  41  87 S5        30.23F FOG
CAMBRIDGE      CLOUDY    43  41  93 S3        30.19F
SALISBURY      CLOUDY    44  43  96 S5        30.20F FOG
OCEAN CITY     CLOUDY    44  43  96 SW5       30.22F
WALLOPS ISLAND CLOUDY    45  43  93 S9        30.22F
ACCOMACK*      CLOUDY    48  44  86 S7        30.22F
$$

NCZ012>017-030>032-171700-
NORTH CENTRAL AND EASTERN NORTH CAROLINA

CITY           SKY/WX    TMP DP  RH WIND       PRES   REMARKS
ROANOKE RAPIDS CLOUDY    50  48  93 S7        30.25S FOG
RALEIGH        CLOUDY    54  51  90 SW13      30.25S FOG
ELIZABETH CITY MOSUNNY   52  47  83 S7        30.25F
AHOSKIE*         N/A     52  47  85 S3        30.24F
EDENTON*       CLOUDY    52  47  83 CALM      30.26F
CURRITUCK*     CLOUDY    52  47  84 CALM      30.25F
KILL DEVIL HLS NOT AVBL
MANTEO         CLOUDY    55  49  82 W3        30.26F
CAPE HATTERAS  PTSUNNY   54  46  74 VRB3      30.27S
TARBORO*       NOT AVBL
GOLDSBORO      CLOUDY    52  52 100 CALM      30.26S
WASHINGTON     CLOUDY    55  47  73 CALM      30.26F
GREENVILLE     NOT AVBL
NEW BERN       CLOUDY    57  47  69 CALM      30.28F
WILMINGTON     CLOUDY    63  54  72 CALM      30.26F
$$

VAZ048-171700-
ELSEWHERE

CITY           SKY/WX    TMP DP  RH WIND       PRES   REMARKS
HARRISBURG PA  CLOUDY    36  34  92 SE5       30.14F FOG
BALTIMORE      LGT RAIN  41  41 100 SE5       30.15F FOG
ANNAPOLIS      LGT RAIN  43  40  89 S9        30.17F FOG
ANDREWS AFB    CLOUDY    43  41  93 SE8       30.12F
PHILADELPHIA   LGT RAIN  41  36  82 S3        30.21F
HENDERSON NC   CLOUDY    52  47  84 SW16      30.22S
GREENSBORO     CLOUDY    54  52  93 SW12      30.21F
ROCKY MOUNT    CLOUDY    54  52  93 SW8       30.25F
$$

VAZ100-171700-
MARINE

STATION/POSITION TIME  TEMP    WIND        PRES    WAVE   SWELL
                       AIR SEA DIR/SP/G            HT/PER HT/PER
                 (UTC) (F)     (DEG/KT/KT) (MB)    (FT/S) (FT/S)
CAPE MAY NJ      1548   42 40  160/  4/  5 1022.8F
LEWES DE         1548          190/  3/  4 1022.8F
OCEAN-CITY-INLET 1548          200/  6/  8 1023.6F
WACHAPREAGUE VA  1548   45 44  200/  9/ 13 1023.3F
THOMAS POINT MD  1600   40 38  170/ 13/ 13   N/A
GOOSES REEF MD   1550   40     170/  8/ 10 1023.0F
COVE POINT MD    1548   40     170/  7/  7 1022.9F
SOLOMONS ISLAND  1548          150/  3/  3   N/A
BISHOPS HEAD MD  1548   42 42  180/ 10/ 13 1023.1F
PINEY POINT MD   1548          140/  3/  4   N/A
POTOMAC MD       1550   42     150/  2/  4 1021.7F
CAMBRIDGE MD     1548   44 39  170/  5/  5 1022.1F
LEWISETTA VA     1548   46 42  230/  3/  4 1022.1F
RAPPAHANNOCK LGT 1548          170/ 15/ 15 1023.5F
STINGRAY PT      1550   42     190/  8/ 10 1023.2F
YORK RVR RNG VA  1548   46     210/ 11/ 11 1022.4F
YORKTOWN VA      1548   49 42  200/ 10/ 13 1022.7F
JAMESTOWN VA     1550   48     170/  4/  6   N/A
DOMINION TERM VA 1548   46     220/  4/  4 1023.6F
KIPTOPEKE VA     1548          170/  8/  8   N/A
CHES BAY BRIDGE  1548   48 42  190/  7/  8 1023.4F
CAPE HENRY VA    1548   50     170/  7/  9   N/A
WILLOUBY STN VA  1548   49     210/  9/  9 1024.3F
S CRANEY ISL VA  1548   48     190/  6/  7 1023.5F
CAPE HENRY BUOY  1542      47                N/A     2/ 9
OFFSHORE WE BUOY 1551      49                N/A     2/ 8
64NM E OF VA BCH 1550   53 56  290/  4/  6 1024.7R   2/ 8   2/ 8
DUCK PIER NC     1548   51 44  180/  4/  5 1024.1F
44100 DUCK FRF   1505      46                N/A     2/10
44056 DUCK FRF   1530      44                N/A     2/ 8
OREGON INLET NC  1542   54 49  290/  4/  5 1025.0F
HATTERAS NC      1548          350/  6/  6 1024.7R
DIAMOND SHLS NC  1550   60 73  350/  4/  6 1024.9S   2/ 8   2/ 8
CAPE LOOKOUT NC  1500   56      30/  5/  6 1024.6
$$



USA.gov is the U.S. government's official web portal to all federal, state and local government web resources and services.